Location: Unspecified
(0.0000°N, 0.0000°E)
Time: 11:40:51
(UTC+00:00)

Vanguard 2 Rocket - Pass Details

Date: 23 November 2019
Orbit: 554 x 3326 km, 32.9° (Epoch: 08 December)

Event Time Altitude Azimuth Distance (km) Brightness Sun altitude
Rises 21:35:24 0° 269° (W) 4,262 10.8 -52.0°
Enters shadow 21:38:21 - 281° (W) 3,350 10.1 -52.6°
Reaches altitude 10° 21:41:04 10° 299° (WNW) 2,653 - -53.2°
Maximum altitude 21:43:03 12° 318° (NW) 2,338 - -53.6°
Drops below altitude 10° 21:44:49 10° 338° (NNW) 2,279 - -53.9°
Sets 21:48:37 0° 14° (NNE) 2,893 - -54.7°
